| time (UTC) | temp C | wind direction | speed KPH | gust KPH | rain 1hr cm | rain 24hr cm | rain mn cm | humidity % | barometer mb |
| 20260505034003 | 13 | 302 | 9.7 | 25.7 | 0.00 | 0.00 | 0.00 | 41 | 1003.5 |
| 20260505033003 | 13 | 307 | 14.5 | 27.4 | 0.00 | 0.00 | 0.00 | 40 | 1003.3 |
| 20260505031004 | 14 | 304 | 14.5 | 33.8 | 0.00 | 0.00 | 0.00 | 41 | 1002.5 |
| 20260505030004 | 14 | 298 | 20.9 | 48.3 | 0.00 | 0.00 | 0.00 | 41 | 1002.5 |
| 20260505025004 | 15 | 303 | 20.9 | 41.8 | 0.00 | 0.00 | 0.00 | 38 | 1002.2 |
| 20260505023003 | 15 | 301 | 22.5 | 45.1 | 0.00 | 0.00 | 0.00 | 36 | 1002.0 |
| 20260505022003 | 15 | 293 | 11.3 | 40.2 | 0.00 | 0.00 | 0.00 | 37 | 1001.9 |
| 20260505021004 | 16 | 286 | 20.9 | 46.7 | 0.00 | 0.00 | 0.00 | 35 | 1001.4 |
| 20260505020003 | 16 | 303 | 8.0 | 32.2 | 0.00 | 0.00 | 0.00 | 37 | 1001.1 |
| 20260505015003 | 16 | 297 | 24.1 | 33.8 | 0.00 | 0.00 | 0.00 | 36 | 1000.8 |
| 20260505014003 | 17 | 299 | 14.5 | 38.6 | 0.00 | 0.00 | 0.00 | 38 | 1000.8 |
| 20260505013003 | 17 | 254 | 8.0 | 29.0 | 0.00 | 0.00 | 0.00 | 37 | 1000.5 |
| 20260505012003 | 17 | 282 | 16.1 | 46.7 | 0.00 | 0.00 | 0.00 | 35 | 1000.3 |
| 20260505011003 | 17 | 288 | 16.1 | 27.4 | 0.00 | 0.00 | 0.00 | 35 | 1000.2 |
| 20260505005004 | 18 | 290 | 16.1 | 37.0 | 0.00 | 0.00 | 0.00 | 34 | 999.9 |
| 20260505004004 | 18 | 284 | 19.3 | 37.0 | 0.00 | 0.00 | 0.00 | 34 | 1000.0 |
| 20260505003004 | 18 | 293 | 11.3 | 37.0 | 0.00 | 0.00 | 0.00 | 34 | 999.9 |
| 20260505001003 | 18 | 283 | 20.9 | 37.0 | 0.00 | 0.00 | 0.00 | 33 | 999.4 |
| 20260505000003 | 19 | 280 | 20.9 | 29.0 | 0.00 | 0.00 | 0.00 | 33 | 999.1 |
| 20260504235003 | 20 | 295 | 20.9 | 29.0 | 0.00 | 0.00 | 0.00 | 32 | 998.8 |
| 20260504234003 | 20 | 292 | 14.5 | 37.0 | 0.00 | 0.00 | 0.00 | 33 | 999.1 |
| 20260504233003 | 20 | 285 | 9.7 | 48.3 | 0.00 | 0.00 | 0.00 | 33 | 998.9 |
| 20260504231003 | 20 | 270 | 16.1 | 25.7 | 0.00 | 0.00 | 0.00 | 32 | 998.7 |
| 20260504230003 | 20 | 268 | 14.5 | 46.7 | 0.00 | 0.00 | 0.00 | 32 | 998.8 |
| 20260504225003 | 20 | 288 | 19.3 | 38.6 | 0.00 | 0.00 | 0.00 | 33 | 998.8 |
| 20260504224003 | 21 | 295 | 27.4 | 51.5 | 0.00 | 0.00 | 0.00 | 32 | 998.8 |
| 20260504223003 | 21 | 294 | 17.7 | 41.8 | 0.00 | 0.00 | 0.00 | 34 | 998.7 |
| 20260504222003 | 21 | 300 | 27.4 | 49.9 | 0.00 | 0.00 | 0.00 | 33 | 998.7 |
| 20260504221003 | 22 | 303 | 24.1 | 35.4 | 0.00 | 0.00 | 0.00 | 34 | 998.2 |
| 20260504220003 | 22 | 269 | 17.7 | 37.0 | 0.00 | 0.00 | 0.00 | 33 | 998.1 |
| 20260504215004 | 22 | 300 | 22.5 | 45.1 | 0.00 | 0.00 | 0.00 | 34 | 997.8 |
| 20260504214003 | 23 | 287 | 14.5 | 33.8 | 0.00 | 0.00 | 0.00 | 35 | 997.7 |
| 20260504213003 | 23 | 275 | 22.5 | 35.4 | 0.00 | 0.00 | 0.00 | 34 | 997.4 |
| 20260504212003 | 24 | 283 | 14.5 | 51.5 | 0.00 | 0.00 | 0.00 | 32 | 997.4 |
| 20260504211004 | 24 | 272 | 27.4 | 45.1 | 0.00 | 0.00 | 0.00 | 32 | 997.6 |
| 20260504210003 | 24 | 279 | 27.4 | 56.3 | 0.00 | 0.00 | 0.00 | 32 | 997.7 |
| 20260504205002 | 25 | 265 | 22.5 | 41.8 | 0.00 | 0.00 | 0.00 | 32 | 997.3 |
| 20260504203004 | 25 | 262 | 17.7 | 41.8 | 0.00 | 0.00 | 0.00 | 32 | 997.4 |
| 20260504202003 | 25 | 266 | 20.9 | 53.1 | 0.00 | 0.00 | 0.00 | 34 | 997.6 |
| 20260504201003 | 25 | 276 | 25.7 | 40.2 | 0.00 | 0.00 | 0.00 | 33 | 997.7 |
| 20260504200003 | 25 | 241 | 8.0 | 37.0 | 0.00 | 0.00 | 0.00 | 36 | 997.6 |
| 20260504194003 | 24 | 256 | 22.5 | 35.4 | 0.00 | 0.00 | 0.00 | 34 | 997.8 |
| 20260504193003 | 24 | 260 | 19.3 | 51.5 | 0.00 | 0.00 | 0.00 | 35 | 998.0 |
| 20260504192003 | 24 | 253 | 20.9 | 37.0 | 0.00 | 0.00 | 0.00 | 35 | 998.1 |
| 20260504191003 | 25 | 279 | 17.7 | 32.2 | 0.00 | 0.00 | 0.00 | 34 | 997.9 |
| 20260504190003 | 25 | 253 | 19.3 | 35.4 | 0.00 | 0.00 | 0.00 | 34 | 998.0 |
| 20260504185003 | 24 | 242 | 19.3 | 35.4 | 0.00 | 0.00 | 0.00 | 34 | 997.9 |
| 20260504184003 | 24 | 293 | 14.5 | 37.0 | 0.00 | 0.00 | 0.00 | 35 | 998.1 |
| 20260504183003 | 24 | 256 | 20.9 | 37.0 | 0.00 | 0.00 | 0.00 | 34 | 998.0 |
| 20260504182004 | 24 | 232 | 16.1 | 35.4 | 0.00 | 0.00 | 0.00 | 35 | 998.0 |
| 20260504181003 | 23 | 259 | 16.1 | 45.1 | 0.00 | 0.00 | 0.00 | 34 | 998.1 |
| 20260504180003 | 24 | 248 | 22.5 | 46.7 | 0.00 | 0.00 | 0.00 | 34 | 997.9 |
| 20260504175003 | 24 | 218 | 22.5 | 40.2 | 0.00 | 0.00 | 0.00 | 33 | 998.2 |
| 20260504174003 | 24 | 252 | 19.3 | 38.6 | 0.00 | 0.00 | 0.00 | 33 | 998.4 |
| 20260504173003 | 23 | 230 | 32.2 | 49.9 | 0.00 | 0.00 | 0.00 | 33 | 998.3 |
| 20260504172003 | 23 | 249 | 20.9 | 53.1 | 0.00 | 0.00 | 0.00 | 34 | 998.5 |
| 20260504171003 | 23 | 221 | 17.7 | 46.7 | 0.00 | 0.00 | 0.00 | 34 | 998.6 |
| 20260504151003 | 20 | 199 | 19.3 | 38.6 | 0.00 | 0.00 | 0.00 | 41 | 1000.1 |
| 20260504141003 | 17 | 193 | 17.7 | 33.8 | 0.00 | 0.00 | 0.00 | 48 | 1001.0 |
| 20260504081004 | 9 | 158 | 4.8 | 8.0 | 0.00 | 0.00 | 0.00 | 73 | 1005.3 |
| 20260504050003 | 12 | 29 | 3.2 | 8.0 | 0.00 | 0.00 | 0.00 | 73 | 1006.8 |
| 20260504044003 | 13 | 23 | 6.4 | 14.5 | 0.00 | 0.00 | 0.00 | 66 | 1006.6 |
| 20260504043003 | 13 | 26 | 8.0 | 12.9 | 0.00 | 0.00 | 0.00 | 60 | 1006.7 |
| 20260504042003 | 13 | 36 | 6.4 | 19.3 | 0.00 | 0.00 | 0.00 | 54 | 1006.7 |
| 20260504040003 | 14 | 150 | 3.2 | 4.8 | 0.00 | 0.00 | 0.00 | 52 | 1006.3 |